SCP
0 0 0 0 0 0 0 0 -0 0 0 0 0 0 -0 0 0 0 0 0 0 -0 -0 -0 -0 -0 -0 -0 -0 -0 -0 -0
0 0 0 0 0 0 0 0 0 0 0 0 0 0 -0 0 0 0 0 0 0 0 0 -0 -0 -0 -0 -0 -0 -0 -0 0
0 0 0 0 0 0 0 0 0 0 0 0 0 1 1 0 0 0 0 1 0 0 0 0 0 -0 0 0 0 0 0 0
0 0 0 0 0 0 0 0 0 0 0 0 0 0 0 0 0 0 0 1 1 1 1 1 0 0 0 0 0 0 0 0
0 0 0 0 0 0 0 0 0 0 0 0 0 0 0 1 1 1 1 1 1 1 1 1 1 1 0 0 0 0 0 0
0 0 0 0 0 0 0 0 0 0 0 0 0 0 1 1 1 1 1 1 1 1 1 1 1 1 1 0 0 0 0 0
0 0 0 0 0 0 0 0 0 0 0 0 0 0 1 1 1 1 1 1 1 1 1 0 1 1 1 1 1 1 0 0
0 0 0 0 0 0 0 0 0 0 0 0 0 0 0 1 1 1 1 1 0 1 1 1 1 1 1 1 1 1 1 0
0 0 0 0 0 0 0 0 0 0 0 0 0 0 0 0 0 0 1 1 1 1 1 1 1 1 1 1 1 1 0 0
0 0 0 -0 0 0 0 0 0 0 0 0 0 0 0 0 0 0 1 0 1 1 1 1 2 1 1 1 1 0 0 0
0 0 0 0 0 0 0 0 0 0 0 0 0 0 0 0 0 0 -0 0 1 1 1 1 1 1 1 0 0 0 0 0
0 0 0 0 0 0 0 0 0 0 0 0 0 0 0 0 0 0 0 0 0 0 0 0 1 1 1 1 1 0 0 0
0 0 0 0 0 0 0 0 0 0 0 0 -0 0 0 0 0 0 0 0 0 0 0 0 1 1 1 1 1 0 0 0
0 0 0 0 0 0 0 0 0 0 0 0 0 0 0 0 0 0 1 0 0 0 0 0 0 1 0 0 0 0 0 0
0 0 0 0 0 0 0 0 0 0 0 0 0 0 0 0 0 0 0 1 1 1 0 0 0 0 0 0 0 0 0 0
0 0 0 0 0 0 0 0 0 0 0 0 0 0 0 0 0 0 0 1 1 1 1 0 0 1 0 0 0 0 0 0
0 0 0 0 0 0 0 0 0 0 0 0 0 0 0 0 0 0 0 0 0 1 1 1 1 1 1 1 0 0 0 0
0 0 0 0 0 0 0 0 0 0 0 0 0 0 0 0 0 0 0 0 0 0 0 1 1 1 1 1 1 1 1 0
0 0 0 0 0 0 0 0 0 0 0 0 0 0 0 -0 0 0 0 0 0 0 0 0 0 1 1 1 1 1 1 1
0 0 0 0 0 0 0 0 0 0 0 0 0 0 0 0 0 0 0 0 0 0 0 0 0 0 1 1 1 1 1 1
Wind_Speed_500mb
9 8 7 8 8 17 41 26 22 8 23 12 5 6 12 19 30 35 43 44 44 46 48 46 42 43 44 45 45 43 42 39
8 7 8 7 17 23 18 24 13 21 12 15 9 12 21 29 27 31 40 42 42 42 44 46 43 41 44 45 46 45 41 39
6 4 8 9 21 28 13 10 20 9 11 13 31 23 18 24 21 15 22 32 41 42 42 44 45 42 43 45 46 44 42 39
1 7 10 12 21 23 19 28 28 29 20 19 19 10 18 23 18 18 13 26 31 37 39 41 44 45 44 45 46 45 42 39
5 6 9 9 22 14 12 29 25 10 7 12 24 15 11 15 20 24 30 33 28 32 36 40 43 46 47 45 46 46 43 39
2 1 5 12 20 19 24 14 13 13 9 9 20 11 13 18 24 26 30 38 39 36 38 44 47 48 49 48 46 45 44 41
5 1 10 9 12 17 6 21 10 15 20 17 18 14 15 14 20 25 25 31 36 34 35 43 49 49 50 50 47 46 45 42
10 4 5 6 8 11 12 30 8 21 13 18 18 15 6 13 10 22 28 29 33 34 28 33 46 51 53 55 55 53 50 46
7 11 4 2 4 9 4 7 30 39 29 27 23 15 19 9 5 4 16 29 33 37 37 34 38 52 55 57 59 55 51 49
11 21 20 10 15 4 16 28 31 36 38 39 31 24 17 20 13 12 11 14 30 43 43 42 43 51 55 58 59 59 55 53
32 29 41 30 18 8 33 35 29 31 36 38 36 30 18 17 18 16 12 15 18 30 39 41 39 45 53 53 54 55 57 57
25 28 17 6 8 8 45 44 43 43 45 44 42 38 28 23 23 21 20 14 18 21 25 31 29 34 44 47 50 54 57 59
7 8 9 1 11 8 37 48 48 49 41 22 27 29 35 26 23 22 16 15 11 13 16 18 23 30 33 38 42 46 48 55
11 13 7 6 12 14 33 33 34 36 30 29 33 36 34 34 35 27 16 15 9 12 17 21 24 28 33 39 40 42 42 40
15 13 5 5 13 16 39 44 42 44 39 30 41 40 33 34 36 35 33 28 29 28 28 23 23 28 28 33 40 42 52 50
10 11 9 11 17 19 51 43 46 45 44 39 37 38 46 44 42 43 41 38 31 32 32 30 26 25 31 32 38 40 45 54
10 11 5 16 15 33 42 30 37 51 38 40 45 48 43 48 50 52 48 46 41 36 35 33 31 35 43 45 46 51 49 45
9 11 3 16 22 34 16 22 33 42 37 37 44 44 32 34 43 55 51 46 44 44 44 43 38 38 41 44 46 49 47 50
12 5 8 10 16 15 14 12 19 19 25 37 29 19 16 26 33 33 28 28 36 42 46 46 45 47 51 51 55 54 52 54
9 9 6 6 10 12 11 18 11 24 27 28 18 8 10 20 27 21 20 21 19 20 24 29 38 48 55 58 64 61 61 59
Wind_Direction_500mb
91 108 166 233 290 291 299 315 259 139 98 91 82 45 145 138 155 167 181 180 179 181 185 187 185 182 180 179 177 177 178 176
86 188 243 226 284 292 304 339 20 119 58 84 125 133 139 141 144 155 181 184 183 185 188 192 192 189 186 183 182 181 182 182
73 284 274 267 304 339 354 359 27 90 82 68 96 118 121 141 144 146 173 184 188 189 193 196 198 197 193 191 189 186 186 187
85 299 274 294 10 13 32 25 59 67 65 62 80 106 126 156 167 176 187 190 189 195 199 203 205 204 203 198 195 193 191 190
184 281 327 322 355 29 343 31 17 50 62 43 66 89 151 188 196 192 200 197 194 200 203 210 213 210 208 205 201 200 197 196
278 332 300 332 358 14 29 19 55 32 29 348 6 86 105 185 198 201 207 200 197 200 206 212 214 214 212 209 207 205 204 203
249 265 276 330 20 21 352 11 37 39 58 48 38 78 108 154 193 196 210 218 207 207 214 216 216 214 212 210 209 208 207 208
214 216 255 314 345 348 5 343 323 327 331 347 338 332 67 109 163 194 206 217 221 220 228 231 221 215 213 211 210 210 208 209
277 302 295 251 303 325 341 294 287 299 308 312 316 305 294 285 203 161 201 221 234 233 225 229 234 220 215 213 214 214 213 215
316 325 321 316 307 247 252 262 289 293 295 303 295 291 263 275 261 188 230 224 237 238 228 226 230 227 220 217 217 219 219 220
321 328 326 306 265 271 280 295 292 284 285 286 289 287 263 251 256 264 247 236 227 229 236 232 237 236 232 228 226 227 226 227
328 315 318 290 293 351 292 292 292 302 293 281 271 277 252 243 252 255 249 208 220 213 228 241 238 248 242 238 237 232 231 231
356 335 288 321 343 267 297 305 294 303 291 267 241 251 240 251 251 253 232 198 207 218 224 240 254 249 245 246 247 245 243 244
290 324 334 34 263 289 327 334 321 317 286 257 232 231 235 241 246 248 206 203 216 232 239 238 255 254 261 252 252 253 249 249
314 308 330 14 278 272 308 307 300 299 295 291 269 247 237 241 240 245 250 235 243 254 253 248 261 257 254 261 267 261 260 257
240 287 325 288 261 270 287 284 284 292 291 285 276 270 256 243 239 237 244 250 242 254 255 255 260 257 258 251 263 273 266 260
247 253 225 269 288 289 289 287 287 293 291 289 282 270 251 253 239 241 243 241 240 242 248 251 251 253 262 267 271 273 278 281
280 271 303 293 291 284 286 268 279 283 285 303 285 278 237 244 246 244 246 241 235 241 245 249 259 266 268 277 281 284 286 278
242 315 294 336 313 334 304 285 298 271 304 321 294 232 244 258 230 229 227 222 233 245 252 251 256 255 261 269 270 273 282 281
286 9 268 92 282 296 311 310 343 342 3 357 348 285 225 191 179 180 212 213 215 223 229 240 256 262 265 267 267 274 284 289
Wind_Speed_850mb
9 8 7 8 8 17 41 26 22 8 23 12 5 6 12 19 30 35 43 44 44 46 48 46 42 43 44 45 45 43 42 39
8 7 8 7 17 23 18 24 13 21 12 15 9 12 21 29 27 31 40 42 42 42 44 46 43 41 44 45 46 45 41 39
6 4 8 9 21 28 13 10 20 9 11 13 31 23 18 24 21 15 22 32 41 42 42 44 45 42 43 45 46 44 42 39
1 7 10 12 21 23 19 28 28 29 20 19 19 10 18 23 18 18 13 26 31 37 39 41 44 45 44 45 46 45 42 39
5 6 9 9 22 14 12 29 25 10 7 12 24 15 11 15 20 24 30 33 28 32 36 40 43 46 47 45 46 46 43 39
2 1 5 12 20 19 24 14 13 13 9 9 20 11 13 18 24 26 30 38 39 36 38 44 47 48 49 48 46 45 44 41
5 1 10 9 12 17 6 21 10 15 20 17 18 14 15 14 20 25 25 31 36 34 35 43 49 49 50 50 47 46 45 42
10 4 5 6 8 11 12 30 8 21 13 18 18 15 6 13 10 22 28 29 33 34 28 33 46 51 53 55 55 53 50 46
7 11 4 2 4 9 4 7 30 39 29 27 23 15 19 9 5 4 16 29 33 37 37 34 38 52 55 57 59 55 51 49
11 21 20 10 15 4 16 28 31 36 38 39 31 24 17 20 13 12 11 14 30 43 43 42 43 51 55 58 59 59 55 53
32 29 41 30 18 8 33 35 29 31 36 38 36 30 18 17 18 16 12 15 18 30 39 41 39 45 53 53 54 55 57 57
25 28 17 6 8 8 45 44 43 43 45 44 42 38 28 23 23 21 20 14 18 21 25 31 29 34 44 47 50 54 57 59
7 8 9 1 11 8 37 48 48 49 41 22 27 29 35 26 23 22 16 15 11 13 16 18 23 30 33 38 42 46 48 55
11 13 7 6 12 14 33 33 34 36 30 29 33 36 34 34 35 27 16 15 9 12 17 21 24 28 33 39 40 42 42 40
15 13 5 5 13 16 39 44 42 44 39 30 41 40 33 34 36 35 33 28 29 28 28 23 23 28 28 33 40 42 52 50
10 11 9 11 17 19 51 43 46 45 44 39 37 38 46 44 42 43 41 38 31 32 32 30 26 25 31 32 38 40 45 54
10 11 5 16 15 33 42 30 37 51 38 40 45 48 43 48 50 52 48 46 41 36 35 33 31 35 43 45 46 51 49 45
9 11 3 16 22 34 16 22 33 42 37 37 44 44 32 34 43 55 51 46 44 44 44 43 38 38 41 44 46 49 47 50
12 5 8 10 16 15 14 12 19 19 25 37 29 19 16 26 33 33 28 28 36 42 46 46 45 47 51 51 55 54 52 54
9 9 6 6 10 12 11 18 11 24 27 28 18 8 10 20 27 21 20 21 19 20 24 29 38 48 55 58 64 61 61 59
Wind_Direction_850mb
91 108 166 233 290 291 299 315 259 139 98 91 82 45 145 138 155 167 181 180 179 181 185 187 185 182 180 179 177 177 178 176
86 188 243 226 284 292 304 339 20 119 58 84 125 133 139 141 144 155 181 184 183 185 188 192 192 189 186 183 182 181 182 182
73 284 274 267 304 339 354 359 27 90 82 68 96 118 121 141 144 146 173 184 188 189 193 196 198 197 193 191 189 186 186 187
85 299 274 294 10 13 32 25 59 67 65 62 80 106 126 156 167 176 187 190 189 195 199 203 205 204 203 198 195 193 191 190
184 281 327 322 355 29 343 31 17 50 62 43 66 89 151 188 196 192 200 197 194 200 203 210 213 210 208 205 201 200 197 196
278 332 300 332 358 14 29 19 55 32 29 348 6 86 105 185 198 201 207 200 197 200 206 212 214 214 212 209 207 205 204 203
249 265 276 330 20 21 352 11 37 39 58 48 38 78 108 154 193 196 210 218 207 207 214 216 216 214 212 210 209 208 207 208
214 216 255 314 345 348 5 343 323 327 331 347 338 332 67 109 163 194 206 217 221 220 228 231 221 215 213 211 210 210 208 209
277 302 295 251 303 325 341 294 287 299 308 312 316 305 294 285 203 161 201 221 234 233 225 229 234 220 215 213 214 214 213 215
316 325 321 316 307 247 252 262 289 293 295 303 295 291 263 275 261 188 230 224 237 238 228 226 230 227 220 217 217 219 219 220
321 328 326 306 265 271 280 295 292 284 285 286 289 287 263 251 256 264 247 236 227 229 236 232 237 236 232 228 226 227 226 227
328 315 318 290 293 351 292 292 292 302 293 281 271 277 252 243 252 255 249 208 220 213 228 241 238 248 242 238 237 232 231 231
356 335 288 321 343 267 297 305 294 303 291 267 241 251 240 251 251 253 232 198 207 218 224 240 254 249 245 246 247 245 243 244
290 324 334 34 263 289 327 334 321 317 286 257 232 231 235 241 246 248 206 203 216 232 239 238 255 254 261 252 252 253 249 249
314 308 330 14 278 272 308 307 300 299 295 291 269 247 237 241 240 245 250 235 243 254 253 248 261 257 254 261 267 261 260 257
240 287 325 288 261 270 287 284 284 292 291 285 276 270 256 243 239 237 244 250 242 254 255 255 260 257 258 251 263 273 266 260
247 253 225 269 288 289 289 287 287 293 291 289 282 270 251 253 239 241 243 241 240 242 248 251 251 253 262 267 271 273 278 281
280 271 303 293 291 284 286 268 279 283 285 303 285 278 237 244 246 244 246 241 235 241 245 249 259 266 268 277 281 284 286 278
242 315 294 336 313 334 304 285 298 271 304 321 294 232 244 258 230 229 227 222 233 245 252 251 256 255 261 269 270 273 282 281
286 9 268 92 282 296 311 310 343 342 3 357 348 285 225 191 179 180 212 213 215 223 229 240 256 262 265 267 267 274 284 289